FW1665 Weather Reports


time (UTC)temp
C
wind
direction
speed
KPH
gust
KPH
rain 1hr
cm
rain 24hr
cm
rain mn
cm
humidity
%
barometer
mb
20260506113904 9 72 3.2 8.0 0.05 0.00 1.32 96 1007.9
20260506113403 9 207 3.2 6.4 0.05 0.00 1.32 96 1007.9
20260506112904 9 101 3.2 6.4 0.05 0.00 1.32 96 1007.8
20260506112403 9 69 3.2 9.7 0.05 0.00 1.32 96 1007.8
20260506111903 8 280 3.2 4.8 0.05 0.00 1.32 97 1007.8
20260506111403 8 324 1.6 6.4 0.05 0.00 1.32 97 1007.8
20260506110903 8 319 1.6 8.0 0.05 0.00 1.32 97 1007.8
20260506110403 8 295 3.2 6.4 0.05 0.00 1.32 97 1007.8
20260506105903 9 180 0.0 4.8 0.08 0.00 1.32 98 1007.8
20260506105404 8 107 1.6 6.4 0.08 0.00 1.32 97 1007.8
20260506104903 9 66 1.6 3.2 0.08 0.00 1.32 97 1007.8
20260506104403 8 116 1.6 3.2 0.08 0.00 1.32 97 1007.7
20260506103904 8 113 1.6 4.8 0.08 0.00 1.27 98 1007.8
20260506103413 8 220 3.2 6.4 0.08 0.00 1.27 98 1007.7
20260506102903 8 274 1.6 6.4 0.08 0.00 1.27 98 1007.7
20260506102403 8 174 3.2 9.7 0.08 0.00 1.27 98 1007.6
20260506101904 9 247 3.2 6.4 0.08 0.00 1.27 98 1007.6
20260506101403 9 192 3.2 9.7 0.13 0.00 1.27 97 1007.5
20260506100903 9 132 3.2 6.4 0.13 0.00 1.27 97 1007.3
20260506100404 9 290 3.2 6.4 0.13 0.00 1.27 98 1007.3
20260506095903 9 330 0.0 3.2 0.08 0.00 1.24 98 1007.2
20260506095403 9 220 3.2 9.7 0.08 0.00 1.24 98 1007.2
20260506094903 9 44 1.6 3.2 0.08 0.00 1.24 98 1007.2
20260506094404 9 203 1.6 4.8 0.08 0.00 1.24 98 1007.1
20260506093903 9 264 1.6 4.8 0.05 0.00 1.19 98 1007.0
20260506093403 9 180 1.6 4.8 0.05 0.00 1.19 98 1007.0
20260506092904 9 337 1.6 6.4 0.08 0.00 1.19 98 1007.0
20260506092403 9 80 1.6 4.8 0.08 0.00 1.19 98 1006.9
20260506091903 10 94 1.6 9.7 0.08 0.00 1.19 98 1006.9
20260506091403 10 329 3.2 8.0 0.05 0.00 1.17 98 1006.8
20260506090904 10 323 1.6 3.2 0.05 0.00 1.17 98 1006.8
20260506090403 10 272 1.6 4.8 0.05 0.00 1.17 98 1006.8
20260506085903 10 213 1.6 3.2 0.05 0.00 1.17 98 1006.7
20260506085404 10 301 1.6 4.8 0.05 0.00 1.17 99 1006.8
20260506084903 10 302 3.2 6.4 0.08 0.00 1.17 99 1006.7
20260506084403 10 320 3.2 6.4 0.08 0.00 1.17 99 1006.6
20260506083903 10 270 3.2 6.4 0.08 0.00 1.17 99 1006.6
20260506083404 10 163 1.6 4.8 0.08 0.00 1.17 99 1006.5
20260506082908 10 154 1.6 4.8 0.05 0.00 1.12 99 1006.5
20260506082413 10 304 1.6 6.4 0.08 0.00 1.12 99 1006.5
20260506081904 9 304 3.2 9.7 0.08 0.00 1.12 99 1006.5
20260506081403 10 247 1.6 4.8 0.08 0.00 1.12 99 1006.5
20260506080903 9 187 1.6 4.8 0.13 0.00 1.12 99 1006.4
20260506080403 9 74 1.6 4.8 0.13 0.00 1.12 99 1006.5
20260506073403 9 197 3.2 6.4 0.15 0.00 1.09 99 1006.4
20260506072914 9 309 1.6 6.4 0.15 0.00 1.09 99 1006.4
20260506072403 9 312 1.6 3.2 0.15 0.00 1.04 99 1006.4
20260506071913 9 312 1.6 4.8 0.15 0.00 1.04 99 1006.4
20260506071413 9 312 1.6 4.8 0.15 0.00 1.04 99 1006.4
20260506070903 9 312 0.0 3.2 0.13 0.00 0.99 99 1006.4
20260506070403 9 249 3.2 8.0 0.13 0.00 0.99 99 1006.4
20260506062403 9 327 1.6 4.8 0.13 0.00 0.89 99 1006.2
20260506061904 9 336 0.0 3.2 0.13 0.00 0.89 99 1006.2
20260506061403 9 184 1.6 3.2 0.13 0.00 0.89 99 1006.2
20260506060903 9 313 3.2 9.7 0.13 0.00 0.89 99 1006.1
20260506060404 9 259 3.2 4.8 0.13 0.00 0.89 99 1006.1
20260506051404 9 68 0.0 3.2 0.08 0.00 0.76 99 1006.0
20260506050914 9 192 1.6 3.2 0.08 0.00 0.76 99 1006.0
20260506050403 9 329 1.6 3.2 0.08 0.00 0.76 99 1005.9
20260506044903 9 252 1.6 6.4 0.08 0.00 0.71 99 1005.9
20260506044403 9 83 1.6 3.2 0.08 0.00 0.71 99 1005.9
20260506043903 9 60 0.0 3.2 0.13 0.00 0.71 99 1005.9
20260506043404 9 85 1.6 4.8 0.08 0.00 0.69 99 1005.8
20260506042903 9 120 3.2 6.4 0.13 0.00 0.69 99 1005.9
20260506042413 9 317 1.6 3.2 0.13 0.00 0.69 99 1005.9
20260506041903 9 306 1.6 3.2 0.13 0.00 0.69 99 1005.9
20260506041404 9 191 1.6 6.4 0.15 0.00 0.69 99 1005.9
20260506040903 9 97 1.6 4.8 0.15 0.00 0.69 99 1005.8
20260506040413 9 340 1.6 4.8 0.15 0.00 0.69 99 1005.9
20260506035904 9 346 1.6 4.8 0.15 0.00 0.64 99 1005.9
20260506035403 9 196 1.6 6.4 0.15 0.00 0.64 99 1005.9
20260506034903 9 161 1.6 4.8 0.20 0.00 0.64 99 1005.9
20260506034413 9 292 1.6 4.8 0.15 0.00 0.61 99 1005.9
20260506033904 9 304 1.6 3.2 0.15 0.00 0.61 99 1006.0
20260506033404 9 312 0.0 4.8 0.15 0.00 0.61 99 1006.0
20260506032903 8 310 0.0 3.2 0.15 0.00 0.56 99 1006.0
20260506032403 8 156 1.6 6.4 0.15 0.00 0.56 99 1006.0
20260506031904 9 148 0.0 1.6 0.15 0.00 0.56 99 1006.1
20260506031403 8 113 1.6 3.2 0.15 0.00 0.51 99 1006.1
20260506030903 8 328 3.2 8.0 0.15 0.00 0.51 99 1006.1
20260506030403 8 341 0.0 3.2 0.20 0.00 0.51 99 1006.2
20260506025904 8 267 3.2 4.8 0.20 0.00 0.48 99 1006.3
20260506025403 8 162 1.6 3.2 0.20 0.00 0.48 99 1006.3
20260506024903 8 110 1.6 3.2 0.15 0.00 0.43 99 1006.3
20260506024404 8 138 1.6 3.2 0.20 0.00 0.43 99 1006.3
20260506023904 8 321 1.6 3.2 0.20 0.00 0.43 99 1006.3
20260506023403 8 87 0.0 3.2 0.20 0.00 0.43 99 1006.4
20260506022903 8 27 0.0 3.2 0.15 0.00 0.41 99 1006.4
20260506022404 8 31 1.6 3.2 0.20 0.00 0.41 99 1006.4
20260506021903 8 35 1.6 3.2 0.20 0.00 0.41 99 1006.4
20260506021403 8 90 0.0 3.2 0.15 0.00 0.36 99 1006.4
20260506020903 8 333 3.2 6.4 0.15 0.00 0.33 99 1006.5
20260506020404 8 290 1.6 4.8 0.15 0.00 0.33 99 1006.5
20260506015903 8 155 0.0 3.2 0.13 0.00 0.28 99 1006.5
20260506015403 8 85 1.6 3.2 0.13 0.00 0.28 99 1006.5
20260506014904 8 89 1.6 3.2 0.15 0.00 0.28 99 1006.5
20260506014403 9 325 0.0 3.2 0.13 0.00 0.23 99 1006.5
20260506013903 9 315 1.6 6.4 0.13 0.00 0.23 99 1006.6
20260506013403 9 212 0.0 3.2 0.13 0.00 0.23 99 1006.6
20260506012903 9 12 1.6 3.2 0.13 0.00 0.23 99 1006.7
20260506012403 9 221 1.6 6.4 0.08 0.00 0.20 99 1006.7
20260506011903 9 262 0.0 3.2 0.08 0.00 0.20 99 1006.6
20260506011404 9 260 0.0 3.2 0.13 0.00 0.20 99 1006.7
20260506010903 9 256 1.6 3.2 0.08 0.00 0.15 99 1006.7
20260506010403 9 311 1.6 6.4 0.08 0.00 0.15 99 1006.7
20260506005904 9 327 0.0 4.8 0.08 0.00 0.15 99 1006.8
20260506005403 9 328 1.6 3.2 0.08 0.00 0.15 99 1006.8
20260506004903 9 318 0.0 4.8 0.05 0.00 0.13 99 1006.8
20260506004403 9 322 1.6 4.8 0.05 0.00 0.13 99 1006.9
20260506003904 9 306 1.6 3.2 0.05 0.00 0.13 99 1006.9
20260506003403 9 303 1.6 4.8 0.05 0.00 0.13 99 1006.9
20260506002913 9 293 3.2 8.0 0.08 0.00 0.13 99 1007.0
20260506002403 9 278 1.6 4.8 0.08 0.00 0.13 99 1007.0
20260506001904 9 233 1.6 3.2 0.08 0.00 0.13 99 1007.1
20260506001403 9 308 1.6 3.2 0.05 0.00 0.08 99 1007.1
20260506000913 9 307 1.6 3.2 0.05 0.00 0.08 99 1007.2
20260506000403 9 312 1.6 3.2 0.05 0.00 0.08 99 1007.2
20260505235904 9 312 3.2 6.4 0.05 0.00 0.08 99 1007.2
20260505235403 9 311 1.6 3.2 0.05 0.00 0.08 99 1007.2
20260505234913 9 309 1.6 4.8 0.05 0.00 0.08 99 1007.2
20260505234404 9 176 1.6 4.8 0.05 0.00 0.08 99 1007.3
20260505233903 9 33 1.6 4.8 0.05 0.00 0.08 99 1007.4
20260505233403 9 201 3.2 4.8 0.05 0.00 0.08 99 1007.4
20260505232903 9 315 1.6 6.4 0.00 0.00 0.05 99 1007.4
20260505232404 10 276 0.0 3.2 0.00 0.00 0.05 99 1007.4
20260505231903 10 307 3.2 4.8 0.00 0.00 0.05 99 1007.5
20260505231403 10 329 1.6 3.2 0.00 0.00 0.05 99 1007.5
20260505230903 10 291 3.2 8.0 0.00 0.00 0.05 99 1007.5
20260505230404 10 269 1.6 6.4 0.00 0.00 0.05 99 1007.4
20260505225913 10 259 3.2 3.2 0.05 0.00 0.05 99 1007.5
20260505225403 10 306 1.6 3.2 0.05 0.00 0.05 99 1007.6
20260505224903 10 313 3.2 3.2 0.05 0.00 0.05 99 1007.6
20260505224404 10 328 1.6 3.2 0.05 0.00 0.05 99 1007.6
20260505223903 10 332 1.6 6.4 0.05 0.00 0.05 99 1007.6
20260505223403 10 323 1.6 6.4 0.05 0.00 0.05 98 1007.7
20260505222903 10 318 1.6 6.4 0.05 0.00 0.05 98 1007.7
20260505222414 10 324 1.6 3.2 0.05 0.00 0.05 98 1007.8
20260505221903 10 240 1.6 6.4 0.05 0.00 0.05 98 1007.8
20260505221403 10 151 1.6 3.2 0.05 0.00 0.05 98 1007.8
20260505220904 10 255 1.6 3.2 0.05 0.00 0.05 98 1007.8
20260505220404 10 293 1.6 3.2 0.05 0.00 0.05 98 1007.8
20260505215903 10 283 1.6 3.2 0.00 0.00 0.20 98 1007.8
20260505215403 10 174 3.2 4.8 0.00 0.00 0.20 98 1007.8
20260505214904 10 229 3.2 6.4 0.00 0.00 0.20 98 1007.9
20260505214403 10 308 1.6 4.8 0.00 0.00 0.20 99 1007.9
20260505213903 10 301 1.6 3.2 0.00 0.00 0.20 99 1008.0
20260505213403 10 236 1.6 4.8 0.00 0.00 0.20 99 1008.0
20260505212904 10 188 1.6 4.8 0.00 0.00 0.20 99 1008.0
20260505212413 10 243 1.6 4.8 0.00 0.00 0.20 99 1008.0
20260505211903 10 319 3.2 6.4 0.00 0.00 0.20 99 1008.0
20260505211414 10 237 1.6 6.4 0.00 0.00 0.20 99 1008.1
20260505210913 10 181 3.2 6.4 0.00 0.00 0.20 99 1008.1
20260505210413 10 350 1.6 4.8 0.00 0.00 0.20 99 1008.1
20260505205903 10 272 1.6 3.2 0.00 0.00 0.20 99 1008.2
20260505205404 10 158 1.6 6.4 0.00 0.00 0.20 99 1008.2
20260505204903 10 52 1.6 3.2 0.00 0.00 0.20 99 1008.2
20260505204413 10 60 1.6 3.2 0.00 0.00 0.20 99 1008.2
20260505203913 10 239 1.6 3.2 0.00 0.00 0.20 99 1008.2
20260505203404 10 296 3.2 6.4 0.00 0.00 0.20 99 1008.2
20260505202913 10 279 1.6 6.4 0.00 0.00 0.20 99 1008.2
20260505202403 10 294 0.0 3.2 0.00 0.00 0.20 99 1008.2
20260505201903 10 321 1.6 4.8 0.00 0.00 0.20 99 1008.1
20260505201404 10 222 3.2 6.4 0.00 0.00 0.20 99 1008.1
20260505200903 10 90 3.2 8.0 0.00 0.00 0.20 99 1008.1
20260505200403 10 169 1.6 3.2 0.00 0.00 0.20 99 1008.1
20260505195904 10 113 3.2 9.7 0.00 0.00 0.20 99 1008.1
20260505195403 10 69 1.6 3.2 0.00 0.00 0.20 99 1008.2
20260505194913 10 42 1.6 1.6 0.00 0.00 0.20 99 1008.1
20260505194403 10 62 3.2 6.4 0.00 0.00 0.20 99 1008.1
20260505193904 10 296 1.6 3.2 0.00 0.00 0.20 99 1008.1
20260505193404 10 119 3.2 6.4 0.00 0.00 0.20 99 1008.1
20260505192903 10 89 1.6 3.2 0.00 0.00 0.20 98 1008.1
20260505192403 10 78 1.6 3.2 0.00 0.00 0.20 98 1008.1
20260505191903 10 106 1.6 4.8 0.00 0.00 0.20 98 1008.1
20260505191403 10 61 3.2 6.4 0.00 0.00 0.20 98 1008.1
20260505190913 10 73 3.2 6.4 0.00 0.00 0.20 97 1008.1
20260505190403 10 109 3.2 4.8 0.00 0.00 0.20 97 1008.0
20260505185904 10 70 1.6 3.2 0.00 0.00 0.20 97 1008.0
20260505172903 11 105 4.8 8.0 0.00 0.00 0.20 96 1008.0
20260505172404 11 90 1.6 4.8 0.00 0.00 0.20 96 1008.1
20260505171904 11 70 3.2 4.8 0.00 0.00 0.20 96 1008.1
20260505171413 11 112 3.2 6.4 0.00 0.00 0.20 96 1008.2
20260505170904 11 79 3.2 6.4 0.00 0.00 0.20 96 1008.1
20260505170404 11 246 3.2 6.4 0.00 0.00 0.20 96 1008.1
20260505165913 11 110 3.2 6.4 0.00 0.00 0.20 96 1008.1
20260505165403 11 174 3.2 9.7 0.00 0.00 0.20 96 1008.1
20260505164904 11 243 3.2 11.3 0.00 0.00 0.20 96 1008.1
20260505164404 11 222 3.2 6.4 0.00 0.00 0.20 96 1008.1
20260505163903 11 251 1.6 3.2 0.00 0.00 0.20 96 1008.1
20260505163404 11 152 1.6 4.8 0.00 0.00 0.20 96 1008.0
20260505162913 11 58 3.2 9.7 0.00 0.00 0.20 95 1008.0
20260505162403 11 237 3.2 9.7 0.00 0.00 0.20 95 1008.1
20260505161903 11 286 3.2 6.4 0.00 0.00 0.20 95 1008.1
20260505161404 11 211 1.6 6.4 0.00 0.00 0.20 95 1008.1
20260505160913 11 66 1.6 3.2 0.00 0.00 0.20 96 1008.1
20260505160403 11 141 1.6 6.4 0.00 0.00 0.20 96 1008.1
20260505152913 11 72 1.6 6.4 0.00 0.00 0.20 95 1008.5
20260505152404 11 102 3.2 6.4 0.00 0.00 0.20 94 1008.5
20260505151903 11 69 1.6 6.4 0.00 0.00 0.20 95 1008.5
20260505151413 11 83 3.2 3.2 0.00 0.00 0.20 95 1008.6
20260505150904 11 90 3.2 6.4 0.00 0.00 0.20 95 1008.6
20260505150403 11 93 3.2 8.0 0.00 0.00 0.20 95 1008.6
20260505140403 11 302 1.6 3.2 0.00 0.00 0.20 95 1008.9
20260505124903 11 214 3.2 6.4 0.00 0.00 0.20 95 1009.3
20260505124403 11 102 3.2 6.4 0.00 0.00 0.20 95 1009.4
20260505123903 11 237 3.2 6.4 0.00 0.00 0.20 96 1009.4
20260505123404 11 252 3.2 6.4 0.00 0.00 0.20 95 1009.4
20260505122903 11 44 3.2 6.4 0.00 0.00 0.20 95 1009.4
20260505122403 11 61 1.6 4.8 0.00 0.00 0.20 96 1009.4
20260505121903 11 66 1.6 3.2 0.00 0.00 0.20 96 1009.4
20260505121404 11 66 1.6 4.8 0.00 0.00 0.20 96 1009.5
20260505120903 11 267 1.6 6.4 0.00 0.00 0.20 96 1009.6
20260505120403 11 331 3.2 4.8 0.00 0.00 0.20 96 1009.5
20260505115904 11 315 1.6 4.8 0.00 0.00 0.20 96 1009.5
20260505115403 11 307 1.6 6.4 0.00 0.00 0.20 96 1009.6
20260505114903 11 331 1.6 6.4 0.00 0.00 0.20 96 1009.6
20260505114403 10 187 3.2 6.4 0.00 0.00 0.20 96 1009.6